SCP
0 0 0 0 0 0 0 0 0 0 0 0 0 0 0 0 0 0 0 0 0 0 0 0 0 0 0 0 0 0 0 0 0 0 0 1 1 1
0 0 0 0 0 0 0 0 0 0 0 0 0 0 0 0 0 0 0 0 0 0 0 0 0 0 0 0 0 0 0 0 0 0 0 1 1 1
0 0 0 0 0 0 0 0 0 0 0 0 0 0 0 0 0 0 0 0 0 0 0 0 0 0 0 0 0 0 0 0 0 0 0 0 0 0
0 0 0 0 0 0 0 0 0 0 0 0 0 0 0 0 0 0 0 0 0 0 0 0 0 0 0 0 0 0 0 0 0 0 0 0 0 0
0 0 0 0 0 0 0 0 0 0 0 0 0 0 0 0 0 0 0 0 0 0 0 0 0 0 0 0 0 0 0 0 0 0 0 0 0 0
0 0 0 0 0 0 0 0 0 0 0 0 0 0 0 0 0 0 0 0 0 0 0 0 0 0 0 0 0 0 0 0 0 0 0 0 0 0
0 0 0 0 0 0 0 0 0 0 0 0 0 0 0 0 0 0 0 0 0 0 0 0 0 0 0 0 0 0 0 0 0 0 0 0 0 0
0 0 0 0 0 0 0 0 0 0 0 0 0 0 0 0 0 0 0 0 0 0 0 0 0 0 0 0 0 0 0 0 0 0 0 0 0 0
0 0 0 0 0 0 0 0 0 0 0 0 0 0 0 0 0 0 0 0 0 0 0 0 0 0 0 0 0 0 0 0 0 0 0 0 0 0
0 0 0 0 0 0 0 0 0 0 0 0 0 0 0 0 0 0 0 0 0 0 0 0 0 0 0 0 0 0 0 0 0 0 0 0 0 0
0 0 0 0 0 0 0 0 0 0 0 0 0 0 0 0 0 0 0 0 0 0 0 0 0 0 0 0 0 0 0 0 0 0 0 0 0 0
0 0 0 0 0 0 0 0 0 0 0 0 0 0 0 0 0 0 0 0 0 0 0 0 0 0 0 0 0 0 0 0 0 0 0 0 0 0
0 0 0 0 0 0 0 0 0 0 0 0 0 0 0 0 0 0 0 0 0 0 0 0 0 0 0 0 0 0 0 0 0 0 0 0 0 0
0 0 0 0 0 0 0 0 0 0 0 0 0 0 0 0 0 0 0 0 0 0 0 0 0 0 0 0 0 0 0 0 0 0 0 0 0 0
0 0 0 0 0 0 0 0 0 0 0 0 0 0 0 0 0 0 0 0 0 0 0 0 0 0 0 0 0 0 0 0 0 0 0 0 0 0
0 0 0 0 0 0 0 0 0 0 0 0 0 0 0 0 0 0 0 0 0 0 0 0 0 0 0 0 0 0 0 0 0 0 0 0 0 0
0 0 0 0 0 0 0 0 0 0 0 0 0 0 0 0 0 0 0 0 0 0 0 0 0 0 0 0 0 0 0 0 0 0 0 0 0 0
0 0 0 0 0 0 0 0 0 0 0 0 0 0 0 0 0 0 0 0 0 0 0 0 0 0 0 0 0 0 0 0 0 0 0 0 0 0
0 0 0 0 0 0 0 0 0 0 0 0 0 0 0 0 0 0 0 0 0 0 0 0 0 0 0 0 0 0 0 0 0 0 0 0 0 0
0 0 0 0 0 0 0 0 0 0 0 0 0 0 0 0 0 0 0 0 0 0 0 0 0 0 0 0 0 0 0 0 0 0 0 0 0 0
0 0 0 0 0 0 0 0 0 0 0 0 0 0 0 0 0 0 0 0 0 0 0 0 0 0 0 0 0 0 0 0 0 0 0 0 0 0
0 0 0 0 0 0 0 0 0 0 0 0 0 0 0 0 0 0 0 0 0 0 0 0 0 0 0 0 0 0 0 0 0 0 0 0 0 0
0 0 0 0 0 0 0 0 0 0 0 0 0 0 0 0 0 0 0 0 0 0 0 0 0 0 0 0 0 0 0 0 0 0 0 0 0 0
Wind_Speed
1 2 2 2 1 2 2 2 3 7 7 5 4 5 6 5 10 8 8 15 18 18 18 18 18 18 19 19 20 20 20 20 20 20 20 21 21 19
1 2 2 2 2 2 2 3 3 5 7 6 6 7 7 8 13 9 9 17 17 18 18 18 18 18 18 19 19 19 20 19 19 19 19 20 20 18
2 2 3 3 2 2 2 3 3 4 8 8 6 7 8 9 9 8 8 7 8 16 17 17 17 17 18 18 18 19 19 19 19 19 19 19 18 18
2 2 3 3 4 3 3 4 4 4 6 10 8 7 8 8 8 9 9 8 7 14 16 17 17 17 17 18 18 18 18 18 18 18 18 18 17 17
2 3 3 3 4 4 4 4 4 5 5 7 9 7 7 7 8 8 9 7 8 10 14 14 16 17 17 18 17 18 17 17 17 17 17 17 17 16
2 3 3 3 4 4 4 4 5 5 6 6 8 7 7 6 6 7 9 7 8 8 10 11 14 15 16 17 17 16 16 16 16 17 17 16 15 14
3 3 4 5 6 5 5 5 5 5 5 6 7 7 7 7 7 6 9 8 8 5 6 7 7 6 7 11 13 15 16 16 16 17 17 16 15 14
3 3 4 4 5 8 10 10 9 7 6 6 6 7 9 8 7 7 8 8 7 4 6 7 5 6 6 5 11 15 16 16 16 16 16 16 15 14
3 3 4 4 5 4 7 9 9 11 10 7 7 8 8 8 8 9 8 8 8 6 6 7 5 6 6 7 14 15 15 16 16 16 16 15 15 14
3 3 3 4 5 6 5 6 6 6 8 6 6 7 7 7 7 7 8 8 7 5 4 6 6 6 7 5 11 14 15 15 16 16 16 16 15 15
3 3 3 4 8 9 6 6 7 6 8 10 11 11 13 13 10 6 6 6 7 5 3 4 5 6 5 5 7 12 13 14 15 16 16 16 15 13
3 3 4 6 9 9 5 5 7 7 7 8 8 9 7 8 10 5 4 5 6 6 3 4 4 5 6 4 4 5 7 11 14 15 15 15 15 8
3 3 3 8 10 9 7 5 8 8 6 6 6 6 5 4 4 4 3 4 5 5 5 4 4 4 4 6 5 4 5 5 6 8 11 14 14 10
3 3 4 9 10 10 7 8 10 8 4 4 5 5 5 5 5 5 5 5 4 6 7 5 4 4 4 5 6 5 5 5 5 5 5 10 10 12
3 6 8 8 8 6 8 9 7 4 4 4 5 5 4 5 5 4 5 5 5 5 5 4 4 4 3 4 5 5 6 5 5 5 5 5 5 5
3 5 7 7 6 6 6 5 4 4 4 4 5 5 4 4 4 4 4 5 5 5 5 4 3 3 3 4 4 6 5 5 5 5 5 5 5 5
3 2 3 3 4 4 4 4 4 4 5 4 5 5 5 5 5 4 4 4 4 5 6 5 4 2 3 3 4 5 5 4 4 5 5 5 5 5
3 2 3 3 4 4 5 5 4 4 5 5 5 5 5 5 5 5 4 4 4 5 5 5 5 4 3 2 2 3 4 4 4 5 4 4 5 5
2 2 3 3 4 4 4 4 4 5 5 4 5 5 5 5 5 5 5 4 4 5 5 4 4 4 4 5 4 3 3 4 4 4 4 3 4 5
2 2 3 3 4 4 4 4 5 5 5 5 5 5 5 5 5 5 4 5 5 5 5 4 4 3 3 4 4 4 5 3 3 4 4 3 3 5
3 3 3 3 4 4 4 4 5 5 5 5 5 5 5 5 5 4 4 6 5 4 5 5 4 6 3 2 2 3 4 5 3 3 4 3 3 4
3 3 3 3 4 4 4 4 5 5 5 5 5 5 5 4 5 5 4 4 4 4 4 4 4 3 2 2 3 4 4 5 5 6 5 3 2 3
3 3 3 4 4 4 4 5 5 5 5 5 5 5 5 4 4 4 4 4 4 4 4 4 3 2 2 2 2 3 4 5 4 4 4 6 5 4
Wind_Direction
293 302 303 295 294 296 298 290 290 302 302 299 312 310 318 315 313 313 308 312 318 318 319 321 322 323 324 323 322 322 321 321 321 319 316 313 311 307
294 304 311 307 310 303 294 290 276 277 289 294 300 305 313 315 315 316 309 316 314 317 319 320 321 323 324 324 324 324 324 323 322 320 319 317 316 312
299 302 302 304 303 296 294 291 286 283 288 297 298 307 311 311 314 311 310 308 308 314 319 321 323 324 325 325 326 326 326 324 324 323 322 320 319 317
289 298 300 306 303 298 294 289 288 286 289 299 306 310 309 311 312 313 316 316 310 313 321 322 324 325 326 327 327 326 325 325 325 326 325 325 324 322
286 289 292 299 299 299 296 292 291 296 292 296 302 306 308 314 317 314 314 311 311 316 319 320 322 325 327 328 328 327 328 328 329 329 329 328 326 324
285 287 289 284 285 291 293 292 298 301 300 300 303 309 311 314 318 320 320 320 315 317 320 321 321 323 325 328 330 331 332 333 334 334 333 333 331 329
289 287 286 292 301 307 308 305 306 302 304 305 306 312 316 325 325 319 318 317 310 313 320 317 315 312 317 323 330 334 335 337 340 340 341 342 339 335
290 294 293 290 303 314 317 316 313 306 305 304 304 310 313 315 316 318 320 322 314 325 322 312 317 314 316 317 330 335 338 341 342 344 346 347 348 347
285 290 302 307 311 298 307 313 310 310 307 304 301 302 305 311 315 316 317 313 303 312 320 304 313 310 313 319 331 335 341 346 349 350 350 350 350 349
292 287 293 298 301 313 310 308 303 302 300 298 288 291 297 301 302 304 304 307 299 302 320 302 310 308 309 312 328 338 343 347 350 352 356 358 357 357
296 300 305 295 307 322 321 312 310 307 309 308 305 304 310 317 324 322 323 323 315 310 320 310 307 311 305 304 325 340 345 348 351 353 354 356 355 353
304 301 305 311 315 322 317 310 309 311 315 317 315 315 314 315 322 315 308 313 313 307 320 325 312 325 319 307 321 334 338 341 347 349 351 354 355 352
311 312 308 316 318 319 321 308 309 319 316 316 316 316 318 320 320 315 305 300 300 293 306 318 306 314 300 304 310 320 332 332 338 342 346 352 355 356
308 308 310 319 320 321 323 322 326 330 324 320 319 319 322 322 319 316 310 301 287 286 295 301 293 303 309 307 309 317 326 330 337 338 342 348 354 357
319 321 323 323 323 321 326 333 335 330 323 321 317 314 313 311 314 317 317 313 309 302 299 291 290 300 301 300 308 314 319 325 339 346 346 346 344 347
328 327 330 327 329 328 335 336 332 327 326 313 312 311 317 323 324 322 323 327 325 322 317 312 303 298 304 297 298 309 317 319 329 334 335 340 348 352
342 340 337 338 342 341 338 335 334 334 330 324 320 321 323 324 322 323 323 327 327 325 328 332 327 303 280 297 306 311 319 319 323 336 342 348 351 352
7 347 335 332 332 331 331 331 331 330 327 324 322 324 325 323 321 323 326 326 325 324 323 325 333 335 329 319 305 306 324 326 331 339 345 345 347 355
7 333 323 321 322 323 323 324 322 322 323 323 323 324 323 321 320 322 324 324 322 320 318 321 328 333 337 337 332 348 336 330 334 339 342 340 338 344
338 322 320 321 321 321 322 323 322 325 327 326 325 325 322 321 321 323 323 322 319 320 324 329 333 326 316 314 314 323 338 329 332 334 333 331 335 337
331 328 324 321 321 320 320 319 319 319 322 323 323 322 320 319 319 320 320 321 321 321 324 326 320 319 311 315 325 337 343 350 352 338 334 333 339 355
329 326 322 321 321 317 317 319 321 321 323 321 320 319 317 315 315 317 320 321 319 317 316 319 325 338 350 349 344 338 341 347 353 359 4 9 359 5
319 317 316 320 321 318 317 319 319 319 320 319 318 317 316 316 313 312 314 314 317 322 326 332 340 346 346 344 347 346 348 352 355 3 5 6 12 5